W8SZ Weather Reports


time (UTC)temp
F
wind
direction
speed
knots
gust
knots
rain 1hr
in
rain 24hr
in
rain mn
in
humidity
%
barometer
mb
20220523060812 37 84 0.0 0.9 0.00 0.00 0.00 100 1025.9
20220523060319 37 84 0.0 0.9 0.00 0.00 0.00 100 1026.2
20220523055812 38 84 0.0 0.9 0.00 0.00 0.00 100 1026.2
20220523055317 38 84 0.0 1.7 0.00 0.00 0.00 100 1026.6
20220523054819 38 84 0.0 2.6 0.00 0.00 0.00 100 1026.5
20220523054323 38 84 0.0 2.6 0.00 0.00 0.00 100 1026.5
20220523053809 38 85 0.0 0.9 0.00 0.00 0.00 100 1026.0
20220523053334 38 84 0.0 0.9 0.00 0.00 0.00 100 1026.4
20220523052808 38 84 0.0 0.0 0.00 0.00 0.00 100 1025.9
20220523052312 39 84 0.0 0.0 0.00 0.00 0.00 100 1026.5
20220523051819 39 84 0.0 0.0 0.00 0.00 0.00 100 1026.1
20220523051321 39 84 0.0 0.9 0.00 0.00 0.00 100 1025.7
20220523050807 39 84 0.0 0.9 0.00 0.00 0.00 100 1026.2
20220523050332 39 85 0.0 0.0 0.00 0.00 0.00 100 1026.2
20220523045821 39 84 0.0 0.0 0.00 0.00 0.00 100 1025.9
20220523045307 40 84 0.0 0.0 0.00 0.00 0.00 100 1026.2
20220523044817 40 85 0.0 0.0 0.00 0.00 0.00 100 1026.1
20220523044324 40 85 0.0 0.0 0.00 0.00 0.00 100 1026.1
20220523043820 40 84 0.0 0.0 0.00 0.00 0.00 100 1025.8
20220523043309 41 85 0.0 0.0 0.00 0.00 0.00 100 1026.0
20220523042814 41 84 0.0 0.0 0.00 0.00 0.00 100 1025.7
20220523042320 41 85 0.0 0.0 0.00 0.00 0.00 100 1025.5
20220523041807 41 84 0.0 0.0 0.00 0.00 0.00 100 1025.6
20220523041312 41 84 0.0 0.0 0.00 0.00 0.00 100 1025.9
20220523040816 42 85 0.0 1.7 0.00 0.00 0.00 100 1025.3
20220523040322 42 84 0.0 3.5 0.00 0.00 0.00 100 1025.6
20220523035813 42 84 0.0 3.5 0.00 0.00 0.24 100 1025.2
20220523035317 42 85 0.0 1.7 0.00 0.00 0.24 100 1025.6
20220523034820 43 84 0.9 1.7 0.00 0.00 0.24 100 1025.4
20220523034325 43 84 0.9 1.7 0.00 0.00 0.24 100 1025.2
20220523033808 43 85 0.0 1.7 0.00 0.00 0.24 100 1025.4
20220523033334 43 85 0.9 1.7 0.00 0.00 0.24 100 1025.8
20220523032808 44 85 0.9 1.7 0.00 0.00 0.24 100 1025.3
20220523032317 44 84 0.9 1.7 0.00 0.00 0.24 100 1025.4
20220523031820 44 84 0.9 1.7 0.00 0.00 0.24 100 1025.5
20220523031319 44 84 0.9 1.7 0.00 0.00 0.24 100 1025.2
20220523030809 44 85 0.0 1.7 0.00 0.00 0.24 100 1025.3
20220523030333 44 84 0.0 3.5 0.00 0.00 0.24 100 1025.3
20220523025821 44 84 1.7 3.5 0.00 0.00 0.24 100 1025.2
20220523025308 44 84 0.9 2.6 0.00 0.00 0.24 100 1024.9
20220523024813 44 85 1.7 2.6 0.00 0.00 0.24 100 1024.9
20220523024318 44 85 1.7 2.6 0.00 0.00 0.24 100 1025.4
20220523023805 44 85 1.7 2.6 0.00 0.00 0.24 100 1024.9
20220523023332 44 85 1.7 2.6 0.00 0.00 0.24 100 1024.9
20220523022808 44 85 1.7 1.7 0.00 0.00 0.24 100 1024.9
20220523022314 44 85 0.9 1.7 0.00 0.00 0.24 100 1024.8
20220523021819 44 85 0.9 1.7 0.00 0.00 0.24 100 1024.8